Temperature
13 13 12 12 11 10 10 9 9 8 8 8 7 7 7 7 7 7 7 6 6 6 6 6 7 7 7 8 9 10 10 10 10 10 9 9 8 8 9 9 10 10 11
15 14 13 12 11 11 10 10 9 9 8 8 8 7 7 7 6 6 6 6 6 6 6 6 6 7 7 8 9 9 10 10 10 9 9 9 7 7 8 8 8 8 9
14 14 13 12 11 11 10 10 10 9 9 8 8 7 7 7 6 6 6 6 6 6 6 6 6 6 7 7 8 9 9 9 9 9 9 9 7 6 6 7 7 7 8
14 14 13 12 11 11 10 10 10 9 9 9 8 8 7 7 7 6 6 6 6 6 6 6 6 6 6 7 8 8 8 9 9 9 9 8 7 6 6 6 6 6 7
13 13 13 12 11 11 11 10 10 10 9 9 8 8 8 7 7 7 7 7 6 6 6 6 6 6 6 7 7 8 8 8 8 9 8 8 7 5 5 5 5 6 6
13 12 12 12 11 11 11 10 10 10 9 9 9 9 8 8 8 8 7 7 7 6 6 6 7 7 7 7 7 8 8 8 8 8 8 8 7 5 5 5 5 5 5
13 12 12 12 11 11 11 10 10 10 9 9 9 9 9 9 8 8 8 8 8 7 7 7 7 7 7 7 7 8 8 8 8 8 8 8 7 5 5 5 5 5 5
13 12 12 11 11 11 11 10 10 10 9 9 9 9 9 9 9 9 8 8 8 8 8 7 7 7 7 7 7 8 8 8 8 8 8 7 7 6 5 5 5 5 5
12 11 12 11 11 11 10 10 10 9 9 9 9 9 9 9 9 8 8 8 8 8 7 7 7 7 7 7 7 7 7 7 7 7 7 7 7 6 5 6 5 5 5
11 11 11 11 11 11 10 10 10 10 9 9 9 9 9 9 9 8 8 8 8 7 7 7 7 7 7 7 7 7 7 7 7 7 7 7 7 6 6 6 5 5 5
11 11 10 11 11 11 10 10 10 10 9 9 9 9 9 9 8 8 8 8 7 7 7 7 7 7 7 7 7 7 7 7 7 7 7 6 6 6 6 5 5 5 4
12 11 10 10 10 10 10 9 10 10 10 9 9 9 9 9 8 8 8 8 7 7 7 7 7 7 7 7 6 6 6 6 6 6 6 6 6 6 5 5 5 4 4
14 13 11 10 9 9 9 9 9 9 10 9 9 9 9 8 8 8 8 7 7 7 7 7 7 7 7 6 6 6 6 6 6 6 5 5 5 5 5 4 4 4 3
14 14 13 11 10 9 9 9 9 9 10 10 9 9 9 9 8 8 8 8 7 7 7 7 7 7 6 6 6 6 5 5 5 5 5 5 5 5 4 4 3 3 3
15 14 14 12 11 10 9 9 9 9 9 9 9 9 9 9 8 8 8 7 7 7 7 7 6 6 6 6 6 5 5 5 5 5 5 4 4 4 4 3 3 2 2
14 14 14 13 12 11 10 10 9 9 9 9 9 9 9 9 8 8 8 7 7 7 7 6 6 6 6 6 5 5 5 5 5 4 4 4 4 4 3 3 2 2 1
15 14 14 14 12 11 11 10 10 9 9 9 9 9 9 9 8 8 8 7 7 7 6 6 6 6 6 5 5 5 5 4 4 4 4 4 3 3 3 2 2 1 0
14 14 14 13 12 12 11 11 10 10 9 9 9 9 9 9 8 8 8 7 7 7 6 6 6 6 5 5 5 5 4 4 4 4 3 3 3 3 2 2 1 0 -0
14 14 13 13 13 12 11 11 10 10 9 9 9 9 9 9 8 8 8 7 7 7 6 6 6 6 5 5 5 4 4 4 4 3 3 3 3 2 2 1 1 0 -0
14 13 13 12 12 12 11 10 9 9 9 9 9 9 9 9 9 8 8 7 7 7 6 6 6 5 5 4 4 4 4 4 3 3 3 3 2 2 1 1 1 0 -0
15 13 13 12 12 11 11 10 10 11 10 9 9 9 9 9 9 9 8 8 7 7 7 6 6 5 5 4 3 3 3 3 3 3 3 3 2 2 1 1 0 -0 -1
15 14 13 12 12 12 12 12 12 11 11 10 9 9 9 9 9 9 9 8 8 7 7 6 6 5 5 4 4 3 2 2 3 3 2 2 2 1 1 0 -0 -1 -2
15 14 13 12 12 12 12 11 10 9 9 9 9 10 10 9 9 9 9 8 8 7 7 7 6 5 5 4 3 3 2 2 1 0 0 1 1 1 0 -0 -1 -1 -2
15 14 13 12 12 11 11 10 10 10 11 12 11 11 10 9 9 9 8 8 8 7 7 6 6 5 4 4 3 2 2 2 1 -0 -1 -0 -0 -0 -0 -1 -1 -2 -2
15 14 13 12 12 11 10 10 10 10 11 10 9 9 9 8 8 8 7 7 7 6 6 6 5 5 4 4 3 3 1 1 -0 -1 -1 -0 -1 -1 -1 -1 -2 -2 -3
15 14 13 13 12 11 10 10 9 9 9 8 8 8 8 7 7 7 7 6 6 6 5 5 4 3 3 3 3 2 2 1 1 0 -1 -1 -1 -1 -1 -2 -2 -2 -3
Wind_Speed
12 22 22 20 17 15 14 13 12 12 12 12 12 12 13 13 14 14 15 15 16 17 17 18 19 20 21 21 22 22 22 22 21 21 22 24 25 25 25 25 23 22 26
15 24 24 21 19 17 15 14 13 12 12 11 11 11 12 12 13 13 14 15 15 15 16 17 18 18 19 20 20 20 20 20 20 20 21 21 23 24 24 24 24 22 25
20 24 24 22 20 18 16 15 14 13 12 11 11 11 11 11 12 12 13 13 14 14 15 15 16 17 17 18 19 19 18 18 18 19 19 20 19 23 23 23 23 24 24
22 24 23 23 21 19 17 16 14 13 12 12 11 11 10 11 11 11 11 12 12 13 13 14 15 15 16 17 17 17 17 16 17 17 16 18 18 21 22 22 23 23 23
20 24 24 24 22 20 18 17 15 14 13 12 11 10 10 10 10 10 10 11 11 11 12 12 13 14 14 15 16 16 15 15 15 14 15 17 17 19 21 21 21 22 22
16 24 25 25 23 21 19 18 16 15 14 12 11 11 10 9 9 9 9 9 9 10 10 11 12 12 13 13 14 14 14 13 13 12 14 15 16 18 20 20 20 21 21
14 23 26 25 23 22 20 19 17 16 14 13 12 11 10 9 9 8 8 8 8 8 9 9 10 10 11 12 13 13 13 12 11 11 12 15 16 18 19 19 20 20 21
13 21 25 25 24 22 21 20 18 17 15 14 12 11 10 9 8 8 7 7 6 7 7 7 8 8 9 10 11 12 12 11 11 10 11 14 17 17 18 19 19 20 20
15 19 23 23 23 23 22 20 19 18 16 15 13 12 11 10 8 8 7 6 5 5 5 5 6 6 7 8 9 10 9 10 11 10 10 12 16 17 17 18 19 19 20
10 13 21 21 21 21 21 21 20 19 18 16 15 13 12 10 9 8 7 6 5 4 3 3 3 4 4 5 7 8 8 9 9 9 9 11 15 16 16 17 17 18 19
12 10 16 20 21 21 21 21 21 20 19 17 16 15 13 11 11 10 8 8 6 4 3 2 0 2 2 2 4 6 6 8 7 6 6 11 14 15 15 16 16 17 17
15 14 10 16 20 22 21 20 20 19 18 18 17 16 15 14 14 12 11 9 7 6 5 4 3 4 3 2 3 4 5 7 6 6 6 10 12 14 14 15 15 16 16
15 14 13 11 19 20 17 19 18 17 18 19 20 21 18 15 12 11 12 11 9 9 9 8 7 7 4 2 2 3 3 4 4 5 6 9 11 13 13 14 14 15 16
14 16 14 12 13 17 17 16 18 16 17 18 20 23 19 14 13 13 14 15 15 13 12 10 9 8 5 4 4 3 3 4 4 5 6 9 11 12 13 13 14 14 15
17 17 15 12 11 13 14 13 15 15 16 18 19 21 21 15 11 13 13 14 15 14 13 10 10 8 6 6 5 5 5 6 6 6 7 9 11 12 13 13 13 14 15
18 18 16 15 13 13 11 10 11 14 16 18 19 20 21 18 15 13 12 13 14 14 13 12 10 8 6 6 6 6 7 8 8 8 9 10 11 12 13 13 13 14 15
17 17 18 16 13 13 11 12 13 15 17 16 18 21 22 20 18 15 11 11 14 15 14 12 10 7 6 6 5 8 9 9 9 10 11 10 11 12 13 14 14 15 15
14 16 18 17 16 14 11 12 12 15 16 16 18 21 23 23 21 17 11 11 16 16 14 9 6 5 5 5 5 5 7 8 10 12 13 13 13 12 13 14 15 16 16
15 15 16 16 17 15 12 11 12 13 14 16 18 19 22 23 23 18 13 14 17 14 11 9 6 6 6 6 6 5 5 6 9 12 12 14 15 15 15 15 16 17 18
15 14 15 15 15 13 11 9 9 10 9 14 16 18 21 23 24 20 15 15 17 9 8 7 7 7 6 5 5 6 6 5 9 10 12 14 15 16 16 16 16 16 18
14 14 15 16 15 13 12 13 13 13 10 9 11 19 22 22 24 21 14 14 13 10 11 10 8 8 7 5 3 4 6 9 10 8 11 11 12 15 17 17 17 17 17
13 13 14 15 15 14 13 11 8 8 8 8 8 14 21 23 23 23 17 11 12 10 12 13 10 7 7 8 5 3 4 5 8 11 8 8 9 13 14 17 18 19 19
11 13 12 14 15 15 12 7 6 6 6 9 10 12 15 22 23 22 20 15 12 13 13 15 13 13 10 9 7 6 5 7 3 3 8 8 8 7 9 14 17 19 20
10 10 11 12 13 13 13 11 12 13 15 15 11 10 11 18 20 23 21 19 13 12 14 15 15 12 10 8 8 8 6 5 4 3 4 6 8 9 9 11 14 18 20
7 8 10 10 11 12 13 14 13 15 13 9 9 11 13 13 17 20 20 17 15 14 15 14 15 15 14 12 8 6 7 6 5 5 5 5 5 7 8 8 11 15 18
3 5 7 9 10 10 13 14 15 16 13 11 11 12 11 11 12 16 17 16 15 14 15 15 14 16 15 14 12 9 7 6 8 8 10 8 6 6 7 7 8 11 16
Wind_Direction
141 151 154 151 148 144 139 132 125 118 112 105 98 93 88 83 80 75 72 68 64 60 57 56 55 54 54 52 49 47 46 46 47 47 44 42 45 46 45 43 42 37 37
141 152 155 153 152 149 144 138 132 126 120 112 106 99 93 88 83 79 74 70 66 63 59 57 56 54 53 52 50 47 46 45 46 47 43 32 37 44 43 41 40 38 37
144 151 157 156 155 152 149 144 140 135 128 121 114 106 100 94 88 83 78 73 69 65 61 58 56 54 52 50 48 47 46 46 47 47 39 21 23 40 41 39 38 37 35
148 152 159 159 157 156 154 151 147 142 136 129 123 115 108 101 94 89 83 78 73 68 64 59 56 54 52 49 47 46 45 46 49 49 35 22 17 35 38 37 35 34 33
150 154 161 161 160 160 159 156 153 149 144 138 132 125 117 109 102 95 88 82 76 71 67 61 56 53 51 48 45 43 43 47 52 46 37 24 11 29 34 34 32 31 30
152 154 159 163 164 164 163 161 159 156 151 147 141 135 127 118 110 102 95 87 81 74 68 62 56 51 49 46 42 40 40 47 55 48 43 24 9 25 30 29 27 26 26
155 152 160 167 167 167 167 166 165 162 158 155 150 144 137 130 122 115 106 96 87 78 71 64 57 49 45 42 38 35 33 40 60 52 47 22 12 23 25 24 22 21 21
155 151 162 170 171 171 172 171 170 168 165 162 159 154 149 143 137 130 121 110 97 86 75 66 56 47 40 37 34 30 29 33 45 40 48 21 16 19 20 19 17 16 15
158 154 161 173 174 176 176 176 175 173 171 169 167 163 159 155 151 145 138 128 114 99 85 70 54 42 34 31 29 25 25 29 44 40 38 14 12 13 14 13 12 11 10
161 159 161 173 175 177 179 181 180 178 177 175 173 170 168 166 163 161 156 151 140 127 109 83 52 30 21 22 21 18 19 23 32 45 38 9 8 8 8 8 6 5 4
173 172 166 174 176 177 179 185 183 182 182 179 176 176 174 173 175 179 171 168 166 164 159 145 39 335 322 320 357 5 14 13 20 35 33 5 3 1 1 1 360 358 357
184 182 176 177 177 178 182 181 180 181 181 176 173 177 183 194 188 180 173 179 186 191 198 206 234 253 282 314 340 342 5 7 8 10 6 354 354 353 353 353 352 351 350
186 183 185 184 177 177 178 172 178 181 178 183 180 178 191 197 175 163 166 185 196 205 214 213 231 234 248 241 286 313 350 345 341 351 341 336 341 343 343 343 342 342 342
187 189 186 186 178 176 174 173 178 181 179 186 188 179 186 187 176 181 183 186 194 201 208 208 220 220 226 242 249 276 300 302 308 315 313 319 326 329 330 331 332 332 332
192 190 190 186 182 177 174 177 181 180 178 182 185 183 183 183 186 187 193 192 194 197 195 208 220 217 216 232 243 253 266 278 284 292 295 302 308 313 315 318 320 321 322
194 191 189 190 185 180 180 180 184 182 179 182 184 189 189 187 189 189 192 193 196 199 198 204 215 212 216 221 234 250 256 263 267 273 279 285 293 298 301 304 306 308 310
194 189 189 191 187 184 185 185 188 187 184 186 186 192 195 194 193 190 191 192 197 199 200 203 217 212 218 221 228 239 244 248 255 264 269 270 272 279 286 290 293 295 299
192 188 188 191 192 190 188 189 191 192 191 192 190 192 197 199 197 191 192 195 195 196 195 193 203 197 212 215 224 233 235 237 245 254 257 256 255 257 266 277 284 287 291
193 186 186 187 191 192 188 189 195 196 198 195 194 194 197 199 199 195 195 197 194 192 191 198 196 197 206 213 219 227 229 234 241 250 248 247 247 246 249 260 272 279 284
189 185 184 185 188 188 187 189 196 207 204 199 197 198 197 199 200 198 199 198 194 189 192 196 199 198 202 203 223 237 233 232 238 238 240 243 243 241 243 245 253 264 274
180 184 184 187 189 189 194 198 202 208 207 204 201 200 199 199 199 200 203 200 197 196 197 195 191 199 204 186 201 261 257 238 235 230 227 227 231 235 237 238 241 245 253
180 187 188 190 191 195 200 201 201 201 207 210 207 207 203 202 201 204 204 202 200 199 199 198 194 192 198 186 176 191 268 271 237 229 215 215 222 227 229 235 236 237 240
184 190 195 193 193 195 193 186 191 198 206 212 213 213 209 206 205 206 207 205 203 203 206 203 197 194 201 197 186 172 194 227 260 240 219 219 219 217 223 230 234 237 240
196 192 194 194 195 193 190 197 198 207 216 218 214 213 211 212 211 210 208 208 208 208 209 207 204 201 192 199 202 208 200 172 181 255 268 231 223 226 227 236 240 237 238
195 190 193 196 200 195 196 202 209 219 225 222 216 216 215 215 216 214 212 211 213 213 212 209 207 204 204 203 196 187 212 218 196 196 240 244 241 233 229 229 235 236 239
186 185 188 199 209 203 203 207 212 222 223 223 222 222 220 218 217 217 215 215 216 217 215 213 210 209 209 209 207 197 184 186 202 204 221 227 233 235 234 233 232 237 241
Height
1556 1558 1561 1563 1565 1567 1568 1569 1570 1571 1571 1571 1571 1571 1571 1571 1571 1570 1570 1569 1569 1568 1567 1567 1565 1564 1562 1561 1560 1559 1558 1558 1557 1557 1557 1557 1558 1557 1556 1555 1555 1554 1554
1553 1556 1559 1562 1564 1565 1567 1568 1569 1570 1570 1571 1571 1571 1571 1571 1570 1570 1570 1569 1569 1568 1567 1567 1566 1564 1563 1562 1560 1560 1559 1558 1558 1557 1557 1556 1557 1558 1557 1556 1555 1555 1554
1552 1554 1557 1560 1562 1564 1566 1567 1568 1569 1570 1570 1570 1570 1570 1570 1570 1570 1569 1569 1568 1568 1567 1566 1565 1564 1563 1562 1561 1560 1559 1559 1558 1558 1557 1556 1557 1558 1557 1556 1555 1555 1554
1550 1552 1555 1558 1560 1562 1564 1566 1567 1568 1569 1569 1569 1570 1570 1570 1570 1569 1569 1569 1568 1567 1567 1566 1565 1564 1563 1562 1561 1560 1559 1559 1558 1558 1557 1556 1556 1558 1557 1556 1555 1554 1553
1549 1550 1553 1556 1558 1561 1563 1564 1566 1567 1568 1568 1569 1569 1569 1569 1569 1569 1568 1568 1568 1567 1566 1566 1565 1564 1563 1562 1562 1561 1560 1559 1558 1558 1557 1556 1556 1557 1557 1555 1555 1554 1553
1547 1548 1550 1554 1556 1559 1561 1563 1564 1565 1566 1567 1568 1568 1568 1568 1568 1568 1568 1568 1567 1567 1566 1565 1565 1564 1563 1562 1562 1561 1560 1559 1558 1557 1557 1556 1556 1557 1556 1555 1554 1553 1553
1545 1546 1548 1551 1554 1556 1559 1561 1562 1564 1565 1565 1566 1567 1567 1567 1567 1567 1567 1567 1567 1566 1566 1565 1565 1564 1563 1562 1562 1561 1560 1559 1558 1557 1556 1556 1555 1556 1555 1554 1553 1552 1552
1543 1544 1546 1549 1552 1554 1556 1558 1560 1561 1563 1564 1565 1565 1566 1566 1566 1566 1566 1566 1566 1566 1565 1565 1564 1564 1563 1562 1561 1561 1560 1559 1558 1557 1556 1556 1555 1555 1554 1553 1552 1551 1550
1541 1542 1543 1546 1549 1551 1553 1555 1557 1559 1560 1562 1563 1563 1564 1564 1565 1565 1565 1565 1565 1565 1564 1564 1564 1563 1562 1562 1561 1560 1559 1559 1558 1557 1556 1555 1555 1554 1553 1552 1551 1550 1549
1539 1539 1540 1542 1545 1548 1550 1552 1554 1556 1558 1559 1560 1561 1562 1562 1563 1563 1563 1564 1563 1563 1563 1563 1562 1562 1561 1561 1560 1559 1559 1558 1557 1556 1555 1554 1554 1553 1552 1551 1549 1549 1548
1535 1536 1537 1538 1541 1544 1547 1549 1551 1553 1554 1556 1557 1558 1559 1560 1561 1561 1561 1561 1561 1561 1561 1561 1561 1560 1560 1559 1559 1558 1557 1557 1556 1555 1554 1553 1552 1551 1550 1549 1548 1547 1546
1529 1531 1533 1535 1537 1540 1542 1545 1547 1549 1550 1552 1554 1555 1556 1557 1558 1558 1559 1559 1559 1559 1559 1559 1558 1558 1558 1557 1557 1556 1556 1555 1554 1553 1552 1551 1550 1549 1548 1547 1546 1545 1544
1524 1526 1529 1532 1534 1536 1538 1540 1542 1544 1546 1548 1550 1552 1553 1554 1555 1555 1556 1556 1557 1557 1557 1557 1556 1556 1556 1555 1555 1554 1553 1553 1552 1551 1550 1549 1548 1547 1546 1545 1544 1543 1542
1519 1521 1524 1527 1530 1532 1534 1535 1537 1539 1541 1543 1546 1547 1549 1550 1551 1552 1553 1553 1554 1554 1554 1554 1554 1553 1553 1553 1552 1552 1551 1550 1549 1548 1548 1547 1545 1544 1543 1542 1541 1540 1539
1514 1516 1518 1522 1525 1527 1529 1531 1533 1534 1536 1539 1541 1543 1544 1546 1547 1548 1549 1549 1549 1550 1550 1550 1550 1550 1550 1550 1549 1549 1548 1547 1546 1545 1544 1544 1542 1541 1540 1539 1538 1537 1536
1508 1510 1513 1516 1519 1522 1524 1525 1528 1530 1532 1534 1536 1538 1540 1541 1543 1543 1544 1545 1545 1546 1546 1546 1546 1546 1546 1546 1546 1545 1544 1544 1543 1542 1541 1540 1539 1538 1537 1535 1534 1533 1532
1503 1506 1508 1511 1514 1516 1518 1520 1523 1525 1527 1528 1530 1533 1535 1536 1537 1538 1539 1540 1541 1541 1542 1542 1542 1542 1542 1541 1541 1541 1540 1539 1539 1537 1536 1535 1534 1534 1532 1531 1530 1529 1528
1499 1501 1503 1506 1508 1510 1512 1515 1517 1519 1521 1523 1524 1526 1529 1530 1532 1533 1534 1534 1536 1536 1536 1537 1537 1537 1537 1536 1536 1536 1535 1534 1534 1533 1532 1530 1529 1529 1528 1526 1525 1524 1523
1494 1496 1498 1499 1502 1505 1507 1510 1512 1514 1515 1516 1518 1519 1521 1524 1525 1526 1527 1529 1530 1530 1530 1531 1531 1531 1531 1531 1530 1530 1529 1529 1528 1527 1526 1525 1524 1523 1522 1521 1520 1519 1518
1488 1491 1493 1495 1497 1500 1503 1505 1506 1508 1508 1510 1510 1512 1514 1516 1518 1519 1520 1522 1523 1523 1523 1524 1524 1525 1525 1525 1524 1523 1523 1522 1522 1521 1520 1519 1518 1517 1516 1515 1514 1513 1512
1483 1486 1488 1489 1491 1494 1495 1496 1497 1498 1501 1502 1503 1505 1506 1508 1510 1511 1512 1514 1515 1515 1515 1517 1518 1518 1518 1519 1518 1516 1515 1515 1514 1514 1513 1513 1512 1511 1510 1509 1508 1507 1506
1479 1481 1483 1484 1485 1487 1488 1490 1492 1494 1495 1496 1498 1498 1499 1499 1501 1502 1504 1505 1506 1507 1507 1508 1509 1509 1510 1511 1511 1510 1508 1506 1504 1505 1505 1505 1505 1504 1503 1502 1501 1500 1499
1476 1477 1478 1479 1480 1481 1483 1486 1487 1488 1488 1488 1488 1488 1490 1491 1492 1493 1494 1495 1496 1497 1497 1498 1499 1500 1501 1502 1501 1503 1501 1497 1498 1496 1496 1497 1498 1497 1497 1496 1494 1493 1492
1473 1473 1474 1475 1476 1476 1478 1479 1479 1478 1477 1477 1480 1481 1483 1484 1484 1484 1485 1486 1486 1487 1487 1488 1490 1490 1492 1491 1491 1491 1492 1493 1493 1490 1489 1489 1489 1489 1489 1489 1488 1487 1486
1471 1470 1470 1471 1471 1472 1472 1472 1473 1472 1472 1474 1475 1475 1474 1475 1475 1475 1475 1476 1476 1476 1476 1478 1478 1479 1480 1481 1481 1481 1482 1483 1483 1482 1480 1480 1481 1480 1481 1481 1480 1479 1479
1469 1468 1467 1467 1466 1467 1467 1467 1467 1466 1467 1467 1467 1467 1467 1466 1466 1465 1466 1465 1465 1465 1466 1467 1468 1469 1469 1470 1471 1471 1470 1471 1470 1471 1470 1470 1470 1472 1473 1473 1472 1471 1471